Year,Month,Day,Hour,Minute,Value (Times are PST for temperature in C)
2013,08,20,00,00,16.30
2013,08,20,00,01,16.20
2013,08,20,00,02,16.20
2013,08,20,00,03,16.20
2013,08,20,00,04,16.20
2013,08,20,00,05,16.20
2013,08,20,00,06,16.20
2013,08,20,00,07,16.10
2013,08,20,00,08,16.10
2013,08,20,00,09,16.10
2013,08,20,00,10,16.10
2013,08,20,00,11,16.10
2013,08,20,00,12,16.10
2013,08,20,00,13,16.10
2013,08,20,00,14,16.00
2013,08,20,00,15,16.00
2013,08,20,00,16,16.00
2013,08,20,00,17,16.00
2013,08,20,00,18,15.90
2013,08,20,00,19,15.90
2013,08,20,00,20,15.90
2013,08,20,00,21,15.90
2013,08,20,00,22,15.90
2013,08,20,00,23,15.90
2013,08,20,00,24,15.90
2013,08,20,00,25,15.90
2013,08,20,00,26,15.90
2013,08,20,00,27,15.90
2013,08,20,00,28,15.90
2013,08,20,00,29,15.90
2013,08,20,00,30,15.90
2013,08,20,00,31,15.90
2013,08,20,00,32,16.00
2013,08,20,00,33,16.00
2013,08,20,00,34,16.00
2013,08,20,00,35,16.10
2013,08,20,00,36,16.10
2013,08,20,00,37,16.20
2013,08,20,00,38,16.30
2013,08,20,00,39,16.30
2013,08,20,00,40,16.40
2013,08,20,00,41,16.50
2013,08,20,00,42,16.60
2013,08,20,00,43,16.60
2013,08,20,00,44,16.70
2013,08,20,00,45,16.80
2013,08,20,00,46,16.80
2013,08,20,00,47,16.90
2013,08,20,00,48,17.00
2013,08,20,00,49,17.10
2013,08,20,00,50,17.10
2013,08,20,00,51,17.10
2013,08,20,00,52,17.20
2013,08,20,00,53,17.20
2013,08,20,00,54,17.20
2013,08,20,00,55,17.20
2013,08,20,00,56,17.20
2013,08,20,00,57,17.20
2013,08,20,00,58,17.20
2013,08,20,00,59,17.20
2013,08,20,01,00,17.20
2013,08,20,01,01,17.20
2013,08,20,01,02,17.20
2013,08,20,01,03,17.20
2013,08,20,01,04,17.20
2013,08,20,01,05,17.20
2013,08,20,01,06,17.20
2013,08,20,01,07,17.20
2013,08,20,01,08,17.20
2013,08,20,01,09,17.20
2013,08,20,01,10,17.20
2013,08,20,01,11,17.20
2013,08,20,01,12,17.20
2013,08,20,01,13,17.10
2013,08,20,01,14,17.10
2013,08,20,01,15,17.10
2013,08,20,01,16,17.10
2013,08,20,01,17,17.10
2013,08,20,01,18,17.10
2013,08,20,01,19,17.10
2013,08,20,01,20,17.10
2013,08,20,01,21,17.10
2013,08,20,01,22,17.10
2013,08,20,01,23,17.10
2013,08,20,01,24,17.10
2013,08,20,01,25,17.10
2013,08,20,01,26,17.10
2013,08,20,01,27,17.10
2013,08,20,01,28,17.10
2013,08,20,01,29,17.00
2013,08,20,01,30,17.00
2013,08,20,01,31,17.00
2013,08,20,01,32,17.00
2013,08,20,01,33,17.00
2013,08,20,01,34,17.00
2013,08,20,01,35,16.90
2013,08,20,01,36,16.90
2013,08,20,01,37,16.90
2013,08,20,01,38,16.90
2013,08,20,01,39,16.90
2013,08,20,01,40,16.90
2013,08,20,01,41,16.90
2013,08,20,01,42,16.90
2013,08,20,01,43,16.90
2013,08,20,01,44,16.80
2013,08,20,01,45,16.80
2013,08,20,01,46,16.80
2013,08,20,01,47,16.80
2013,08,20,01,48,16.80
2013,08,20,01,49,16.80
2013,08,20,01,50,16.80
2013,08,20,01,51,16.80
2013,08,20,01,52,16.80
2013,08,20,01,53,16.70
2013,08,20,01,54,16.70
2013,08,20,01,55,16.70
2013,08,20,01,56,16.70
2013,08,20,01,57,16.70
2013,08,20,01,58,16.70
2013,08,20,01,59,16.70
2013,08,20,02,00,16.70
2013,08,20,02,01,16.70
2013,08,20,02,02,16.70
2013,08,20,02,03,16.70
2013,08,20,02,04,16.70
2013,08,20,02,05,16.70
2013,08,20,02,06,16.80
2013,08,20,02,07,16.80
2013,08,20,02,08,16.80
2013,08,20,02,09,16.80
2013,08,20,02,10,16.80
2013,08,20,02,11,16.80
2013,08,20,02,12,16.80
2013,08,20,02,13,16.80
2013,08,20,02,14,16.80
2013,08,20,02,15,16.80
2013,08,20,02,16,16.80
2013,08,20,02,17,16.80
2013,08,20,02,18,16.80
2013,08,20,02,19,16.80
2013,08,20,02,20,16.90
2013,08,20,02,21,16.90
2013,08,20,02,22,16.90
2013,08,20,02,23,16.90
2013,08,20,02,24,16.90
2013,08,20,02,25,16.90
2013,08,20,02,26,16.90
2013,08,20,02,27,16.90
2013,08,20,02,28,16.90
2013,08,20,02,29,16.90
2013,08,20,02,30,16.90
2013,08,20,02,31,16.90
2013,08,20,02,32,16.90
2013,08,20,02,33,16.90
2013,08,20,02,34,16.90
2013,08,20,02,35,16.90
2013,08,20,02,36,16.90
2013,08,20,02,37,16.90
2013,08,20,02,38,16.90
2013,08,20,02,39,16.90
2013,08,20,02,40,16.90
2013,08,20,02,41,16.90
2013,08,20,02,42,16.90
2013,08,20,02,43,16.90
2013,08,20,02,44,16.90
2013,08,20,02,45,16.90
2013,08,20,02,46,16.90
2013,08,20,02,47,16.90
2013,08,20,02,48,16.90
2013,08,20,02,49,16.90
2013,08,20,02,50,16.90
2013,08,20,02,51,16.90
2013,08,20,02,52,16.90
2013,08,20,02,53,16.90
2013,08,20,02,54,16.90
2013,08,20,02,55,16.80
2013,08,20,02,56,16.80
2013,08,20,02,57,16.80
2013,08,20,02,58,16.80
2013,08,20,02,59,16.80
2013,08,20,03,00,16.80
2013,08,20,03,01,16.80
2013,08,20,03,02,16.80
2013,08,20,03,03,16.80
2013,08,20,03,04,16.80
2013,08,20,03,05,16.80
2013,08,20,03,06,16.80
2013,08,20,03,07,16.80
2013,08,20,03,08,16.80
2013,08,20,03,09,16.80
2013,08,20,03,10,16.80
2013,08,20,03,11,16.70
2013,08,20,03,12,16.70
2013,08,20,03,13,16.70
2013,08,20,03,14,16.70
2013,08,20,03,15,16.70
2013,08,20,03,16,16.70
2013,08,20,03,17,16.70
2013,08,20,03,18,16.70
2013,08,20,03,19,16.70
2013,08,20,03,20,16.70
2013,08,20,03,21,16.70
2013,08,20,03,22,16.70
2013,08,20,03,23,16.70
2013,08,20,03,24,16.70
2013,08,20,03,25,16.60
2013,08,20,03,26,16.60
2013,08,20,03,27,16.60
2013,08,20,03,28,16.60
2013,08,20,03,29,16.60
2013,08,20,03,30,16.60
2013,08,20,03,31,16.60
2013,08,20,03,32,16.60
2013,08,20,03,33,16.60
2013,08,20,03,34,16.60
2013,08,20,03,35,16.60
2013,08,20,03,36,16.60
2013,08,20,03,37,16.60
2013,08,20,03,38,16.60
2013,08,20,03,39,16.60
2013,08,20,03,40,16.60
2013,08,20,03,41,16.60
2013,08,20,03,42,16.60
2013,08,20,03,43,16.60
2013,08,20,03,44,16.60
2013,08,20,03,45,16.60
2013,08,20,03,46,16.60
2013,08,20,03,47,16.60
2013,08,20,03,48,16.60
2013,08,20,03,49,16.60
2013,08,20,03,50,16.60
2013,08,20,03,51,16.60
2013,08,20,03,52,16.60
2013,08,20,03,53,16.60
2013,08,20,03,54,16.60
2013,08,20,03,55,16.60
2013,08,20,03,56,16.60
2013,08,20,03,57,16.60
2013,08,20,03,58,16.60
2013,08,20,03,59,16.60
2013,08,20,04,00,16.60
2013,08,20,04,01,16.60
2013,08,20,04,02,16.60
2013,08,20,04,03,16.60
2013,08,20,04,04,16.60
2013,08,20,04,05,16.60
2013,08,20,04,06,16.60
2013,08,20,04,07,16.50
2013,08,20,04,08,16.50
2013,08,20,04,09,16.50
2013,08,20,04,10,16.40
2013,08,20,04,11,16.40
2013,08,20,04,12,16.40
2013,08,20,04,13,16.40
2013,08,20,04,14,16.40
2013,08,20,04,15,16.40
2013,08,20,04,16,16.40
2013,08,20,04,17,16.40
2013,08,20,04,18,16.40
2013,08,20,04,19,16.40
2013,08,20,04,20,16.40
2013,08,20,04,21,16.40
2013,08,20,04,22,16.40
2013,08,20,04,23,16.40
2013,08,20,04,24,16.40
2013,08,20,04,25,16.50
2013,08,20,04,26,16.50
2013,08,20,04,27,16.50
2013,08,20,04,28,16.50
2013,08,20,04,29,16.50
2013,08,20,04,30,16.50
2013,08,20,04,31,16.50
2013,08,20,04,32,16.50
2013,08,20,04,33,16.50
2013,08,20,04,34,16.50
2013,08,20,04,35,16.50
2013,08,20,04,36,16.50
2013,08,20,04,37,16.50
2013,08,20,04,38,16.60
2013,08,20,04,39,16.60
2013,08,20,04,40,16.60
2013,08,20,04,41,16.60
2013,08,20,04,42,16.60
2013,08,20,04,43,16.50
2013,08,20,04,44,16.50
2013,08,20,04,45,16.50
2013,08,20,04,46,16.40
2013,08,20,04,47,16.40
2013,08,20,04,48,16.40
2013,08,20,04,49,16.40
2013,08,20,04,50,16.40
2013,08,20,04,51,16.40
2013,08,20,04,52,16.40
2013,08,20,04,53,16.40
2013,08,20,04,54,16.40
2013,08,20,04,55,16.40
2013,08,20,04,56,16.40
2013,08,20,04,57,16.40
2013,08,20,04,58,16.40
2013,08,20,04,59,16.40
2013,08,20,05,00,16.40
2013,08,20,05,01,16.40
2013,08,20,05,02,16.40
2013,08,20,05,03,16.40
2013,08,20,05,04,16.40
2013,08,20,05,05,16.40
2013,08,20,05,06,16.40
2013,08,20,05,07,16.40
2013,08,20,05,08,16.40
2013,08,20,05,09,16.40
2013,08,20,05,10,16.40
2013,08,20,05,11,16.40
2013,08,20,05,12,16.40
2013,08,20,05,13,16.40
2013,08,20,05,14,16.40
2013,08,20,05,15,16.50
2013,08,20,05,16,16.50
2013,08,20,05,17,16.50
2013,08,20,05,18,16.50
2013,08,20,05,19,16.50
2013,08,20,05,20,16.50
2013,08,20,05,21,16.50
2013,08,20,05,22,16.50
2013,08,20,05,23,16.50
2013,08,20,05,24,16.50
2013,08,20,05,25,16.50
2013,08,20,05,26,16.40
2013,08,20,05,27,16.40
2013,08,20,05,28,16.40
2013,08,20,05,29,16.40
2013,08,20,05,30,16.40
2013,08,20,05,31,16.40
2013,08,20,05,32,16.40
2013,08,20,05,33,16.40
2013,08,20,05,34,16.40
2013,08,20,05,35,16.40
2013,08,20,05,36,16.40
2013,08,20,05,37,16.40
2013,08,20,05,38,16.40
2013,08,20,05,39,16.40
2013,08,20,05,40,16.40
2013,08,20,05,41,16.40
2013,08,20,05,42,16.40
2013,08,20,05,43,16.40
2013,08,20,05,44,16.40
2013,08,20,05,45,16.40
2013,08,20,05,46,16.40
2013,08,20,05,47,16.40
2013,08,20,05,48,16.40
2013,08,20,05,49,16.40
2013,08,20,05,50,16.40
2013,08,20,05,51,16.40
2013,08,20,05,52,16.40
2013,08,20,05,53,16.40
2013,08,20,05,54,16.40
2013,08,20,05,55,16.40
2013,08,20,05,56,16.40
2013,08,20,05,57,16.40
2013,08,20,05,58,16.40
2013,08,20,05,59,16.40
2013,08,20,06,00,16.40
2013,08,20,06,01,16.40
2013,08,20,06,02,16.40
2013,08,20,06,03,16.40
2013,08,20,06,04,16.40
2013,08,20,06,05,16.40
2013,08,20,06,06,16.40
2013,08,20,06,07,16.40
2013,08,20,06,08,16.40
2013,08,20,06,09,16.40
2013,08,20,06,10,16.40
2013,08,20,06,11,16.40
2013,08,20,06,12,16.40
2013,08,20,06,13,16.50
2013,08,20,06,14,16.50
2013,08,20,06,15,16.50
2013,08,20,06,16,16.50
2013,08,20,06,17,16.60
2013,08,20,06,18,16.60
2013,08,20,06,19,16.60
2013,08,20,06,20,16.60
2013,08,20,06,21,16.60
2013,08,20,06,22,16.60
2013,08,20,06,23,16.70
2013,08,20,06,24,16.70
2013,08,20,06,25,16.70
2013,08,20,06,26,16.70
2013,08,20,06,27,16.70
2013,08,20,06,28,16.80
2013,08,20,06,29,16.80
2013,08,20,06,30,16.80
2013,08,20,06,31,16.80
2013,08,20,06,32,16.80
2013,08,20,06,33,16.70
2013,08,20,06,34,16.70
2013,08,20,06,35,16.70
2013,08,20,06,36,16.70
2013,08,20,06,37,16.70
2013,08,20,06,38,16.70
2013,08,20,06,39,16.70
2013,08,20,06,40,16.70
2013,08,20,06,41,16.70
2013,08,20,06,42,16.70
2013,08,20,06,43,16.70
2013,08,20,06,44,16.70
2013,08,20,06,45,16.60
2013,08,20,06,46,16.60
2013,08,20,06,47,16.60
2013,08,20,06,48,16.60
2013,08,20,06,49,16.60
2013,08,20,06,50,16.60
2013,08,20,06,51,16.50
2013,08,20,06,52,16.50
2013,08,20,06,53,16.50
2013,08,20,06,54,16.50
2013,08,20,06,55,16.40
2013,08,20,06,56,16.40
2013,08,20,06,57,16.40
2013,08,20,06,58,16.40
2013,08,20,06,59,16.40
2013,08,20,07,00,16.30
2013,08,20,07,01,16.30
2013,08,20,07,02,16.30
2013,08,20,07,03,16.30
2013,08,20,07,04,16.20
2013,08,20,07,05,16.20
2013,08,20,07,06,16.20
2013,08,20,07,07,16.10
2013,08,20,07,08,16.10
2013,08,20,07,09,16.10
2013,08,20,07,10,16.10
2013,08,20,07,11,16.10
2013,08,20,07,12,16.10
2013,08,20,07,13,16.00
2013,08,20,07,14,16.00
2013,08,20,07,15,16.00
2013,08,20,07,16,16.00
2013,08,20,07,17,16.10
2013,08,20,07,18,16.10
2013,08,20,07,19,16.20
2013,08,20,07,20,16.20
2013,08,20,07,21,16.20
2013,08,20,07,22,16.30
2013,08,20,07,23,16.30
2013,08,20,07,24,16.30
2013,08,20,07,25,16.40
2013,08,20,07,26,16.40
2013,08,20,07,27,16.40
2013,08,20,07,28,16.40
2013,08,20,07,29,16.50
2013,08,20,07,30,16.50
2013,08,20,07,31,16.50
2013,08,20,07,32,16.60
2013,08,20,07,33,16.60
2013,08,20,07,34,16.60
2013,08,20,07,35,16.60
2013,08,20,07,36,16.60
2013,08,20,07,37,16.60
2013,08,20,07,38,16.60
2013,08,20,07,39,16.70
2013,08,20,07,40,16.70
2013,08,20,07,41,16.70
2013,08,20,07,42,16.70
2013,08,20,07,43,16.80
2013,08,20,07,44,16.80
2013,08,20,07,45,16.80
2013,08,20,07,46,16.90
2013,08,20,07,47,16.90
2013,08,20,07,48,16.90
2013,08,20,07,49,16.90
2013,08,20,07,50,16.90
2013,08,20,07,51,16.90
2013,08,20,07,52,16.90
2013,08,20,07,53,16.90
2013,08,20,07,54,16.90
2013,08,20,07,55,16.90
2013,08,20,07,56,16.90
2013,08,20,07,57,16.90
2013,08,20,07,58,16.90
2013,08,20,07,59,16.90
2013,08,20,08,00,17.00
2013,08,20,08,01,17.00
2013,08,20,08,02,17.00
2013,08,20,08,03,17.10
2013,08,20,08,04,17.10
2013,08,20,08,05,17.10
2013,08,20,08,06,17.20
2013,08,20,08,07,17.20
2013,08,20,08,08,17.20
2013,08,20,08,09,17.20
2013,08,20,08,10,17.20
2013,08,20,08,11,17.20
2013,08,20,08,12,17.20
2013,08,20,08,13,17.20
2013,08,20,08,14,17.30
2013,08,20,08,15,17.30
2013,08,20,08,16,17.30
2013,08,20,08,17,17.30
2013,08,20,08,18,17.30
2013,08,20,08,19,17.30
2013,08,20,08,20,17.30
2013,08,20,08,21,17.20
2013,08,20,08,22,17.20
2013,08,20,08,23,17.10
2013,08,20,08,24,17.10
2013,08,20,08,25,17.10
2013,08,20,08,26,17.00
2013,08,20,08,27,17.00
2013,08,20,08,28,16.90
2013,08,20,08,29,16.90
2013,08,20,08,30,16.90
2013,08,20,08,31,16.90
2013,08,20,08,32,16.90
2013,08,20,08,33,16.80
2013,08,20,08,34,16.80
2013,08,20,08,35,16.80
2013,08,20,08,36,16.80
2013,08,20,08,37,16.80
2013,08,20,08,38,16.80
2013,08,20,08,39,16.80
2013,08,20,08,40,16.80
2013,08,20,08,41,16.80
2013,08,20,08,42,16.80
2013,08,20,08,43,16.80
2013,08,20,08,44,16.90
2013,08,20,08,45,16.90
2013,08,20,08,46,16.90
2013,08,20,08,47,16.90
2013,08,20,08,48,17.00
2013,08,20,08,49,17.00
2013,08,20,08,50,17.00
2013,08,20,08,51,17.10
2013,08,20,08,52,17.10
2013,08,20,08,53,17.10
2013,08,20,08,54,17.20
2013,08,20,08,55,17.30
2013,08,20,08,56,17.30
2013,08,20,08,57,17.40
2013,08,20,08,58,17.40
2013,08,20,08,59,17.40
2013,08,20,09,00,17.50
2013,08,20,09,01,17.50
2013,08,20,09,02,17.60
2013,08,20,09,03,17.60
2013,08,20,09,04,17.60
2013,08,20,09,05,17.60
2013,08,20,09,06,17.70
2013,08,20,09,07,17.70
2013,08,20,09,08,17.70
2013,08,20,09,09,17.70
2013,08,20,09,10,17.80
2013,08,20,09,11,17.80
2013,08,20,09,12,17.80
2013,08,20,09,13,17.80
2013,08,20,09,14,17.90
2013,08,20,09,15,17.90
2013,08,20,09,16,17.90
2013,08,20,09,17,17.90
2013,08,20,09,18,17.80
2013,08,20,09,19,17.80
2013,08,20,09,20,17.80
2013,08,20,09,21,17.80
2013,08,20,09,22,17.80
2013,08,20,09,23,17.80
2013,08,20,09,24,17.80
2013,08,20,09,25,17.90
2013,08,20,09,26,17.90
2013,08,20,09,27,18.00
2013,08,20,09,28,18.10
2013,08,20,09,29,18.20
2013,08,20,09,30,18.20
2013,08,20,09,31,18.20
2013,08,20,09,32,18.20
2013,08,20,09,33,18.30
2013,08,20,09,34,18.40
2013,08,20,09,35,18.40
2013,08,20,09,36,18.50
2013,08,20,09,37,18.50
2013,08,20,09,38,18.50
2013,08,20,09,39,18.50
2013,08,20,09,40,18.50
2013,08,20,09,41,18.50
2013,08,20,09,42,18.50
2013,08,20,09,43,18.40
2013,08,20,09,44,18.40
2013,08,20,09,45,18.50
2013,08,20,09,46,18.60
2013,08,20,09,47,18.70
2013,08,20,09,48,18.80
2013,08,20,09,49,18.90
2013,08,20,09,50,18.90
2013,08,20,09,51,19.00
2013,08,20,09,52,19.00
2013,08,20,09,53,19.00
2013,08,20,09,54,19.10
2013,08,20,09,55,19.00
2013,08,20,09,56,18.90
2013,08,20,09,57,18.80
2013,08,20,09,58,18.80
2013,08,20,09,59,18.70
2013,08,20,10,00,18.60
2013,08,20,10,01,18.60
2013,08,20,10,02,18.60
2013,08,20,10,03,18.70
2013,08,20,10,04,18.70
2013,08,20,10,05,18.80
2013,08,20,10,06,18.90
2013,08,20,10,07,19.00
2013,08,20,10,08,19.00
2013,08,20,10,09,19.10
2013,08,20,10,10,19.20
2013,08,20,10,11,19.40
2013,08,20,10,12,19.40
2013,08,20,10,13,19.40
2013,08,20,10,14,19.30
2013,08,20,10,15,19.30
2013,08,20,10,16,19.20
2013,08,20,10,17,19.20
2013,08,20,10,18,19.20
2013,08,20,10,19,19.20
2013,08,20,10,20,19.20
2013,08,20,10,21,19.20
2013,08,20,10,22,19.30
2013,08,20,10,23,19.40
2013,08,20,10,24,19.40
2013,08,20,10,25,19.30
2013,08,20,10,26,19.20
2013,08,20,10,27,19.20
2013,08,20,10,28,19.10
2013,08,20,10,29,19.20
2013,08,20,10,30,19.20
2013,08,20,10,31,19.30
2013,08,20,10,32,19.40
2013,08,20,10,33,19.50
2013,08,20,10,34,19.50
2013,08,20,10,35,19.40
2013,08,20,10,36,19.50
2013,08,20,10,37,19.50
2013,08,20,10,38,19.60
2013,08,20,10,39,19.60
2013,08,20,10,40,19.50
2013,08,20,10,41,19.30
2013,08,20,10,42,19.30
2013,08,20,10,43,19.30
2013,08,20,10,44,19.30
2013,08,20,10,45,19.40
2013,08,20,10,46,19.40
2013,08,20,10,47,19.40
2013,08,20,10,48,19.40
2013,08,20,10,49,19.30
2013,08,20,10,50,19.20
2013,08,20,10,51,19.30
2013,08,20,10,52,19.30
2013,08,20,10,53,19.40
2013,08,20,10,54,19.50
2013,08,20,10,55,19.60
2013,08,20,10,56,19.60
2013,08,20,10,57,19.70
2013,08,20,10,58,19.80
2013,08,20,10,59,19.80
2013,08,20,11,00,19.70
2013,08,20,11,01,19.70
2013,08,20,11,02,19.70
2013,08,20,11,03,19.80
2013,08,20,11,04,19.90
2013,08,20,11,05,20.00
2013,08,20,11,06,20.00
2013,08,20,11,07,20.10
2013,08,20,11,08,20.10
2013,08,20,11,09,20.20
2013,08,20,11,10,20.20
2013,08,20,11,11,20.30
2013,08,20,11,12,20.20
2013,08,20,11,13,20.20
2013,08,20,11,14,20.10
2013,08,20,11,15,20.10
2013,08,20,11,16,20.00
2013,08,20,11,17,19.90
2013,08,20,11,18,19.80
2013,08,20,11,19,19.70
2013,08,20,11,20,19.70
2013,08,20,11,21,19.60
2013,08,20,11,22,19.60
2013,08,20,11,23,19.60
2013,08,20,11,24,19.60
2013,08,20,11,25,19.70
2013,08,20,11,26,19.70
2013,08,20,11,27,19.70
2013,08,20,11,28,19.60
2013,08,20,11,29,19.60
2013,08,20,11,30,19.60
2013,08,20,11,31,19.60
2013,08,20,11,32,19.60
2013,08,20,11,33,19.70
2013,08,20,11,34,19.80
2013,08,20,11,35,19.80
2013,08,20,11,36,19.80
2013,08,20,11,37,19.90
2013,08,20,11,38,19.90
2013,08,20,11,39,20.00
2013,08,20,11,40,20.00
2013,08,20,11,41,20.00
2013,08,20,11,42,20.00
2013,08,20,11,43,19.90
2013,08,20,11,44,19.90
2013,08,20,11,45,19.80
2013,08,20,11,46,19.90
2013,08,20,11,47,19.80
2013,08,20,11,48,19.80
2013,08,20,11,49,19.90
2013,08,20,11,50,20.00
2013,08,20,11,51,20.00
2013,08,20,11,52,20.10
2013,08,20,11,53,20.10
2013,08,20,11,54,20.10
2013,08,20,11,55,20.10
2013,08,20,11,56,20.00
2013,08,20,11,57,19.90
2013,08,20,11,58,19.80
2013,08,20,11,59,19.70
2013,08,20,12,00,19.70
2013,08,20,12,01,19.70
2013,08,20,12,02,19.70
2013,08,20,12,03,19.70
2013,08,20,12,04,19.70
2013,08,20,12,05,19.70
2013,08,20,12,06,19.70
2013,08,20,12,07,19.80
2013,08,20,12,08,19.80
2013,08,20,12,09,19.80
2013,08,20,12,10,19.70
2013,08,20,12,11,19.70
2013,08,20,12,12,19.60
2013,08,20,12,13,19.60
2013,08,20,12,14,19.70
2013,08,20,12,15,19.80
2013,08,20,12,16,19.80
2013,08,20,12,17,19.90
2013,08,20,12,18,19.90
2013,08,20,12,19,19.90
2013,08,20,12,20,20.00
2013,08,20,12,21,20.10
2013,08,20,12,22,20.10
2013,08,20,12,23,20.10
2013,08,20,12,24,20.10
2013,08,20,12,25,20.00
2013,08,20,12,26,20.00
2013,08,20,12,27,20.10
2013,08,20,12,28,20.10
2013,08,20,12,29,20.10
2013,08,20,12,30,20.10
2013,08,20,12,31,20.10
2013,08,20,12,32,20.10
2013,08,20,12,33,20.20
2013,08,20,12,34,20.30
2013,08,20,12,35,20.30
2013,08,20,12,36,20.30
2013,08,20,12,37,20.40
2013,08,20,12,38,20.50
2013,08,20,12,39,20.40
2013,08,20,12,40,20.40
2013,08,20,12,41,20.40
2013,08,20,12,42,20.40
2013,08,20,12,43,20.40
2013,08,20,12,44,20.40
2013,08,20,12,45,20.40
2013,08,20,12,46,20.40
2013,08,20,12,47,20.30
2013,08,20,12,48,20.30
2013,08,20,12,49,20.30
2013,08,20,12,50,20.40
2013,08,20,12,51,20.40
2013,08,20,12,52,20.50
2013,08,20,12,53,20.60
2013,08,20,12,54,20.50
2013,08,20,12,55,20.40
2013,08,20,12,56,20.40
2013,08,20,12,57,20.50
2013,08,20,12,58,20.60
2013,08,20,12,59,20.70
2013,08,20,13,00,20.80
2013,08,20,13,01,21.00
2013,08,20,13,02,21.00
2013,08,20,13,03,20.90
2013,08,20,13,04,20.80
2013,08,20,13,05,20.80
2013,08,20,13,06,20.70
2013,08,20,13,07,20.60
2013,08,20,13,08,20.60
2013,08,20,13,09,20.70
2013,08,20,13,10,20.70
2013,08,20,13,11,20.70
2013,08,20,13,12,20.70
2013,08,20,13,13,20.80
2013,08,20,13,14,20.80
2013,08,20,13,15,20.90
2013,08,20,13,16,20.90
2013,08,20,13,17,20.90
2013,08,20,13,18,20.90
2013,08,20,13,19,20.80
2013,08,20,13,20,20.80
2013,08,20,13,21,20.70
2013,08,20,13,22,20.70
2013,08,20,13,23,20.70
2013,08,20,13,24,20.60
2013,08,20,13,25,20.60
2013,08,20,13,26,20.60
2013,08,20,13,27,20.60
2013,08,20,13,28,20.60
2013,08,20,13,29,20.70
2013,08,20,13,30,20.70
2013,08,20,13,31,20.70
2013,08,20,13,32,20.80
2013,08,20,13,33,20.80
2013,08,20,13,34,20.80
2013,08,20,13,35,20.90
2013,08,20,13,36,20.90
2013,08,20,13,37,20.90
2013,08,20,13,38,20.90
2013,08,20,13,39,20.90
2013,08,20,13,40,20.90
2013,08,20,13,41,20.90
2013,08,20,13,42,20.90
2013,08,20,13,43,21.00
2013,08,20,13,44,21.10
2013,08,20,13,45,21.20
2013,08,20,13,46,21.30
2013,08,20,13,47,21.30
2013,08,20,13,48,21.30
2013,08,20,13,49,21.30
2013,08,20,13,50,21.30
2013,08,20,13,51,21.40
2013,08,20,13,52,21.40
2013,08,20,13,53,21.50
2013,08,20,13,54,21.60
2013,08,20,13,55,21.60
2013,08,20,13,56,21.60
2013,08,20,13,57,21.70
2013,08,20,13,58,21.80
2013,08,20,13,59,21.80
2013,08,20,14,00,21.80
2013,08,20,14,01,21.90
2013,08,20,14,02,22.00
2013,08,20,14,03,22.00
2013,08,20,14,04,22.00
2013,08,20,14,05,22.00
2013,08,20,14,06,22.00
2013,08,20,14,07,22.00
2013,08,20,14,08,22.00
2013,08,20,14,09,22.00
2013,08,20,14,10,21.90
2013,08,20,14,11,21.90
2013,08,20,14,12,21.90
2013,08,20,14,13,22.00
2013,08,20,14,14,22.00
2013,08,20,14,15,21.90
2013,08,20,14,16,21.90
2013,08,20,14,17,21.90
2013,08,20,14,18,22.00
2013,08,20,14,19,22.10
2013,08,20,14,20,22.20
2013,08,20,14,21,22.20
2013,08,20,14,22,22.20
2013,08,20,14,23,22.10
2013,08,20,14,24,22.10
2013,08,20,14,25,22.10
2013,08,20,14,26,22.10
2013,08,20,14,27,22.10
2013,08,20,14,28,22.10
2013,08,20,14,29,22.10
2013,08,20,14,30,22.10
2013,08,20,14,31,22.00
2013,08,20,14,32,21.90
2013,08,20,14,33,21.90
2013,08,20,14,34,21.90
2013,08,20,14,35,21.90
2013,08,20,14,36,22.00
2013,08,20,14,37,22.00
2013,08,20,14,38,22.10
2013,08,20,14,39,22.10
2013,08,20,14,40,22.20
2013,08,20,14,41,22.20
2013,08,20,14,42,22.30
2013,08,20,14,43,22.40
2013,08,20,14,44,22.50
2013,08,20,14,45,22.60
2013,08,20,14,46,22.60
2013,08,20,14,47,22.50
2013,08,20,14,48,22.50
2013,08,20,14,49,22.60
2013,08,20,14,50,22.50
2013,08,20,14,51,22.50
2013,08,20,14,52,22.40
2013,08,20,14,53,22.40
2013,08,20,14,54,22.30
2013,08,20,14,55,22.20
2013,08,20,14,56,22.20
2013,08,20,14,57,22.30
2013,08,20,14,58,22.30
2013,08,20,14,59,22.30
2013,08,20,15,00,22.30
2013,08,20,15,01,22.30
2013,08,20,15,02,22.30
2013,08,20,15,03,22.30
2013,08,20,15,04,22.40
2013,08,20,15,05,22.30
2013,08,20,15,06,22.30
2013,08,20,15,07,22.20
2013,08,20,15,08,22.20
2013,08,20,15,09,22.20
2013,08,20,15,10,22.20
2013,08,20,15,11,22.20
2013,08,20,15,12,22.10
2013,08,20,15,13,22.00
2013,08,20,15,14,22.00
2013,08,20,15,15,22.10
2013,08,20,15,16,22.20
2013,08,20,15,17,22.20
2013,08,20,15,18,22.20
2013,08,20,15,19,22.20
2013,08,20,15,20,22.30
2013,08,20,15,21,22.20
2013,08,20,15,22,22.10
2013,08,20,15,23,22.00
2013,08,20,15,24,21.90
2013,08,20,15,25,21.90
2013,08,20,15,26,21.90
2013,08,20,15,27,22.00
2013,08,20,15,28,22.10
2013,08,20,15,29,22.10
2013,08,20,15,30,22.10
2013,08,20,15,31,22.20
2013,08,20,15,32,22.30
2013,08,20,15,33,22.40
2013,08,20,15,34,22.40
2013,08,20,15,35,22.40
2013,08,20,15,36,22.40
2013,08,20,15,37,22.30
2013,08,20,15,38,22.40
2013,08,20,15,39,22.40
2013,08,20,15,40,22.30
2013,08,20,15,41,22.30
2013,08,20,15,42,22.20
2013,08,20,15,43,22.30
2013,08,20,15,44,22.30
2013,08,20,15,45,22.30
2013,08,20,15,46,22.30
2013,08,20,15,47,22.20
2013,08,20,15,48,22.20
2013,08,20,15,49,22.20
2013,08,20,15,50,22.20
2013,08,20,15,51,22.30
2013,08,20,15,52,22.30
2013,08,20,15,53,22.20
2013,08,20,15,54,22.20
2013,08,20,15,55,22.20
2013,08,20,15,56,22.10
2013,08,20,15,57,22.10
2013,08,20,15,58,22.10
2013,08,20,15,59,22.10
2013,08,20,16,00,22.10
2013,08,20,16,01,22.10
2013,08,20,16,02,22.20
2013,08,20,16,03,22.30
2013,08,20,16,04,22.30
2013,08,20,16,05,22.30
2013,08,20,16,06,22.40
2013,08,20,16,07,22.40
2013,08,20,16,08,22.30
2013,08,20,16,09,22.20
2013,08,20,16,10,22.20
2013,08,20,16,11,22.30
2013,08,20,16,12,22.40
2013,08,20,16,13,22.50
2013,08,20,16,14,22.60
2013,08,20,16,15,22.70
2013,08,20,16,16,22.80
2013,08,20,16,17,22.80
2013,08,20,16,18,22.80
2013,08,20,16,19,22.80
2013,08,20,16,20,22.90
2013,08,20,16,21,22.90
2013,08,20,16,22,22.90
2013,08,20,16,23,22.90
2013,08,20,16,24,22.90
2013,08,20,16,25,22.90
2013,08,20,16,26,22.90
2013,08,20,16,27,22.90
2013,08,20,16,28,22.90
2013,08,20,16,29,22.80
2013,08,20,16,30,22.70
2013,08,20,16,31,22.60
2013,08,20,16,32,22.50
2013,08,20,16,33,22.50
2013,08,20,16,34,22.50
2013,08,20,16,35,22.50
2013,08,20,16,36,22.60
2013,08,20,16,37,22.60
2013,08,20,16,38,22.70
2013,08,20,16,39,22.60
2013,08,20,16,40,22.60
2013,08,20,16,41,22.60
2013,08,20,16,42,22.60
2013,08,20,16,43,22.70
2013,08,20,16,44,22.70
2013,08,20,16,45,22.70
2013,08,20,16,46,22.60
2013,08,20,16,47,22.60
2013,08,20,16,48,22.50
2013,08,20,16,49,22.40
2013,08,20,16,50,22.30
2013,08,20,16,51,22.30
2013,08,20,16,52,22.30
2013,08,20,16,53,22.40
2013,08,20,16,54,22.50
2013,08,20,16,55,22.60
2013,08,20,16,56,22.60
2013,08,20,16,57,22.60
2013,08,20,16,58,22.70
2013,08,20,16,59,22.70
2013,08,20,17,00,22.70
2013,08,20,17,01,22.70
2013,08,20,17,02,22.70
2013,08,20,17,03,22.70
2013,08,20,17,04,22.70
2013,08,20,17,05,22.70
2013,08,20,17,06,22.70
2013,08,20,17,07,22.70
2013,08,20,17,08,22.70
2013,08,20,17,09,22.60
2013,08,20,17,10,22.60
2013,08,20,17,11,22.60
2013,08,20,17,12,22.60
2013,08,20,17,13,22.50
2013,08,20,17,14,22.50
2013,08,20,17,15,22.40
2013,08,20,17,16,22.40
2013,08,20,17,17,22.40
2013,08,20,17,18,22.40
2013,08,20,17,19,22.40